AIB8421 KELP-KLAX

Flight info

Callsign AIB8421
Flight time 1h 47m
Altitude 38000
Route ATKNN5 FLOGS SSO J4 WLVRN ESTWD HLYWD1
Aircraft A320/M-SDE3FGHIRWY/LB1

Departure

Time 2026-04-26 14:25
Airport El Paso International Airport (KELP)

Arrival

Time 2026-04-26 16:12
Airport Los Angeles International Airport (KLAX)
Time Latitude Longitude Altitude Speed Heading
2026-04-26 13:51 31.80088 -106.39298 3947 ft 0 kts 223°
2026-04-26 14:11 31.80099 -106.39286 3947 ft 3 kts 223°
2026-04-26 14:11 31.80115 -106.39268 3947 ft 4 kts 231°
2026-04-26 14:11 31.80129 -106.39241 3947 ft 4 kts 253°
2026-04-26 14:12 31.80132 -106.39217 3947 ft 1 kts 273°
2026-04-26 14:12 31.80132 -106.39212 3947 ft 0 kts 273°
2026-04-26 14:15 31.80133 -106.39213 3947 ft 0 kts 283°
2026-04-26 14:15 31.80141 -106.39230 3947 ft 4 kts 303°
2026-04-26 14:16 31.80160 -106.39255 3947 ft 4 kts 315°
2026-04-26 14:16 31.80178 -106.39276 3947 ft 3 kts 316°
2026-04-26 14:16 31.80200 -106.39295 3947 ft 5 kts 326°
2026-04-26 14:16 31.80229 -106.39305 3947 ft 4 kts 358°
2026-04-26 14:17 31.80254 -106.39296 3947 ft 4 kts 24°
2026-04-26 14:17 31.80273 -106.39279 3947 ft 3 kts 39°
2026-04-26 14:17 31.80289 -106.39263 3947 ft 3 kts 42°
2026-04-26 14:17 31.80305 -106.39245 3947 ft 3 kts 42°
2026-04-26 14:18 31.80333 -106.39216 3947 ft 9 kts 43°
2026-04-26 14:18 31.80390 -106.39152 3947 ft 8 kts 44°
2026-04-26 14:18 31.80429 -106.39107 3947 ft 8 kts 44°
2026-04-26 14:18 31.80467 -106.39066 3947 ft 7 kts 43°
2026-04-26 14:19 31.80501 -106.39028 3947 ft 6 kts 43°
2026-04-26 14:19 31.80532 -106.38994 3947 ft 6 kts 43°
2026-04-26 14:19 31.80565 -106.38959 3947 ft 10 kts 43°
2026-04-26 14:19 31.80650 -106.38866 3947 ft 19 kts 43°
2026-04-26 14:20 31.80754 -106.38750 3947 ft 22 kts 44°
2026-04-26 14:20 31.80871 -106.38615 3947 ft 25 kts 49°
2026-04-26 14:20 31.80985 -106.38453 3947 ft 26 kts 50°
2026-04-26 14:20 31.81106 -106.38281 3947 ft 28 kts 50°
2026-04-26 14:21 31.81229 -106.38111 3947 ft 21 kts 50°
2026-04-26 14:21 31.81327 -106.37973 3947 ft 24 kts 50°
2026-04-26 14:21 31.81439 -106.37816 3947 ft 26 kts 50°
2026-04-26 14:21 31.81565 -106.37646 3947 ft 29 kts 48°
2026-04-26 14:22 31.81699 -106.37456 3947 ft 31 kts 51°
2026-04-26 14:22 31.81839 -106.37260 3947 ft 30 kts 50°
2026-04-26 14:22 31.81946 -106.37112 3947 ft 13 kts 49°
2026-04-26 14:22 31.82009 -106.37026 3946 ft 14 kts 50°
2026-04-26 14:23 31.82075 -106.36932 3947 ft 15 kts 50°
2026-04-26 14:23 31.82137 -106.36909 3947 ft 15 kts 341°
2026-04-26 14:23 31.82241 -106.37001 3946 ft 13 kts 325°
2026-04-26 14:23 31.82248 -106.37068 3946 ft 0 kts 232°
2026-04-26 14:24 31.82148 -106.37210 3945 ft 66 kts 229°
2026-04-26 14:24 31.81667 -106.37875 3949 ft 143 kts 230°
2026-04-26 14:24 31.80912 -106.38917 4338 ft 177 kts 227°
2026-04-26 14:25 31.80180 -106.40060 5351 ft 173 kts 238°
2026-04-26 14:25 31.79549 -106.41339 6066 ft 191 kts 240°
2026-04-26 14:25 31.78871 -106.42798 6652 ft 216 kts 242°
2026-04-26 14:25 31.78121 -106.44444 7269 ft 241 kts 242°
2026-04-26 14:26 31.77297 -106.46248 8084 ft 257 kts 242°
2026-04-26 14:26 31.76449 -106.48118 9178 ft 262 kts 246°
2026-04-26 14:26 31.76143 -106.50224 10198 ft 270 kts 276°
2026-04-26 14:26 31.76766 -106.52412 10817 ft 298 kts 292°
2026-04-26 14:27 31.77895 -106.54582 11364 ft 322 kts 301°
2026-04-26 14:27 31.79259 -106.56716 12339 ft 329 kts 302°
2026-04-26 14:27 31.80525 -106.58960 13392 ft 328 kts 293°
2026-04-26 14:27 31.81323 -106.61450 14359 ft 325 kts 281°
2026-04-26 14:28 31.81861 -106.64029 15334 ft 326 kts 278°
2026-04-26 14:28 31.82337 -106.66639 16271 ft 328 kts 277°
2026-04-26 14:28 31.82792 -106.69273 17210 ft 330 kts 277°
2026-04-26 14:28 31.83247 -106.71928 18134 ft 332 kts 276°
2026-04-26 14:29 31.83712 -106.74602 18924 ft 335 kts 276°
2026-04-26 14:29 31.84192 -106.77303 19651 ft 339 kts 277°
2026-04-26 14:29 31.84686 -106.80034 20365 ft 344 kts 277°
2026-04-26 14:29 31.85188 -106.82797 21050 ft 348 kts 277°
2026-04-26 14:30 31.85697 -106.85593 21735 ft 352 kts 277°
2026-04-26 14:30 31.86214 -106.88424 22398 ft 356 kts 277°
2026-04-26 14:30 31.86736 -106.91284 23058 ft 360 kts 277°
2026-04-26 14:30 31.87262 -106.94183 23663 ft 364 kts 277°
2026-04-26 14:31 31.87792 -106.97110 24204 ft 367 kts 277°
2026-04-26 14:31 31.88319 -107.00023 24754 ft 370 kts 277°
2026-04-26 14:31 31.88854 -107.02990 25293 ft 372 kts 277°
2026-04-26 14:31 31.89393 -107.05979 25821 ft 375 kts 277°
2026-04-26 14:32 31.89936 -107.08994 26342 ft 378 kts 276°
2026-04-26 14:32 31.90482 -107.12035 26866 ft 381 kts 276°
2026-04-26 14:32 31.91030 -107.15094 27398 ft 383 kts 276°
2026-04-26 14:32 31.91581 -107.18178 27938 ft 386 kts 276°
2026-04-26 14:33 31.92135 -107.21279 28462 ft 389 kts 276°
2026-04-26 14:33 31.92693 -107.24407 28958 ft 391 kts 276°
2026-04-26 14:33 31.93253 -107.27558 29452 ft 394 kts 276°
2026-04-26 14:33 31.93817 -107.30734 29925 ft 397 kts 276°
2026-04-26 14:34 31.94385 -107.33923 30336 ft 399 kts 276°
2026-04-26 14:34 31.94954 -107.37121 30748 ft 400 kts 276°
2026-04-26 14:34 31.95526 -107.40333 31195 ft 401 kts 276°
2026-04-26 14:34 31.96097 -107.43534 31783 ft 397 kts 276°
2026-04-26 14:35 31.96663 -107.46702 32415 ft 393 kts 276°
2026-04-26 14:35 31.97219 -107.49840 33051 ft 389 kts 276°
2026-04-26 14:35 31.97762 -107.52906 33680 ft 386 kts 275°
2026-04-26 14:35 31.98305 -107.55986 34242 ft 382 kts 275°
2026-04-26 14:36 31.98842 -107.59042 34790 ft 379 kts 275°
2026-04-26 14:36 31.99374 -107.62068 35314 ft 376 kts 275°
2026-04-26 14:36 31.99899 -107.65081 35830 ft 373 kts 275°
2026-04-26 14:36 32.00417 -107.68067 36323 ft 371 kts 275°
2026-04-26 14:37 32.00932 -107.71036 36799 ft 369 kts 275°
2026-04-26 14:37 32.01442 -107.73981 37262 ft 366 kts 275°
2026-04-26 14:37 32.01951 -107.76915 37716 ft 365 kts 275°
2026-04-26 14:37 32.02460 -107.79843 37861 ft 364 kts 275°
2026-04-26 14:38 32.02965 -107.82754 37878 ft 362 kts 275°
2026-04-26 14:38 32.03976 -107.88561 37869 ft 361 kts 275°
2026-04-26 14:39 32.04980 -107.94388 37853 ft 368 kts 275°
2026-04-26 14:39 32.05997 -108.00353 37827 ft 373 kts 275°
2026-04-26 14:40 32.07034 -108.06375 37805 ft 377 kts 275°
2026-04-26 14:40 32.08080 -108.12457 37802 ft 380 kts 275°
2026-04-26 14:41 32.09125 -108.18567 37799 ft 380 kts 275°
2026-04-26 14:41 32.10170 -108.24680 37807 ft 380 kts 275°
2026-04-26 14:42 32.11202 -108.30765 37815 ft 380 kts 275°
2026-04-26 14:42 32.12230 -108.36878 37819 ft 380 kts 275°
2026-04-26 14:43 32.13262 -108.43002 37853 ft 380 kts 275°
2026-04-26 14:43 32.14291 -108.49122 37863 ft 380 kts 275°
2026-04-26 14:44 32.15319 -108.55219 37882 ft 379 kts 275°
2026-04-26 14:44 32.16338 -108.61318 37906 ft 379 kts 275°
2026-04-26 14:45 32.17349 -108.67423 37917 ft 378 kts 275°
2026-04-26 14:45 32.18357 -108.73515 37926 ft 378 kts 275°
2026-04-26 14:46 32.19366 -108.79619 37919 ft 378 kts 275°
2026-04-26 14:46 32.20365 -108.85669 37902 ft 378 kts 275°
2026-04-26 14:47 32.21367 -108.91771 37887 ft 378 kts 275°
2026-04-26 14:47 32.22367 -108.97879 37853 ft 379 kts 275°
2026-04-26 14:48 32.23370 -109.03995 37824 ft 379 kts 275°
2026-04-26 14:48 32.24367 -109.10114 37784 ft 379 kts 275°
2026-04-26 14:49 32.25355 -109.16233 37791 ft 379 kts 275°
2026-04-26 14:49 32.26319 -109.22351 37794 ft 379 kts 274°
2026-04-26 14:50 32.27640 -109.28361 37794 ft 388 kts 284°
2026-04-26 14:50 32.29709 -109.34254 37792 ft 388 kts 284°
2026-04-26 14:51 32.31775 -109.40149 37790 ft 388 kts 284°
2026-04-26 14:51 32.33838 -109.46050 37794 ft 388 kts 284°
2026-04-26 14:52 32.35898 -109.51940 37793 ft 388 kts 284°
2026-04-26 14:52 32.37947 -109.57839 37791 ft 388 kts 284°
2026-04-26 14:53 32.40002 -109.63743 37800 ft 388 kts 284°
2026-04-26 14:53 32.42054 -109.69657 37806 ft 388 kts 284°
2026-04-26 14:54 32.44095 -109.75567 37810 ft 388 kts 284°
2026-04-26 14:54 32.46147 -109.81493 37811 ft 389 kts 284°
2026-04-26 14:55 32.48193 -109.87401 37812 ft 387 kts 284°
2026-04-26 14:55 32.50219 -109.93302 37816 ft 387 kts 284°
2026-04-26 14:56 32.52250 -109.99205 37822 ft 386 kts 284°
2026-04-26 14:56 32.54272 -110.05091 37821 ft 385 kts 284°
2026-04-26 14:57 32.56274 -110.10939 37818 ft 385 kts 284°
2026-04-26 14:57 32.58288 -110.16822 37825 ft 385 kts 284°
2026-04-26 14:58 32.60294 -110.22706 37825 ft 385 kts 284°
2026-04-26 14:58 32.62302 -110.28597 37824 ft 385 kts 284°
2026-04-26 14:59 32.64300 -110.34480 37828 ft 384 kts 284°
2026-04-26 14:59 32.66294 -110.40359 37824 ft 384 kts 283°
2026-04-26 15:00 32.68284 -110.46235 37830 ft 383 kts 283°
2026-04-26 15:00 32.70274 -110.52103 37836 ft 383 kts 283°
2026-04-26 15:01 32.72256 -110.57966 37838 ft 382 kts 283°
2026-04-26 15:01 32.74231 -110.63830 37845 ft 381 kts 283°
2026-04-26 15:02 32.76179 -110.69635 37845 ft 380 kts 283°
2026-04-26 15:02 32.78134 -110.75459 37850 ft 379 kts 283°
2026-04-26 15:03 32.80088 -110.81289 37857 ft 379 kts 283°
2026-04-26 15:03 32.82038 -110.87110 37859 ft 379 kts 283°
2026-04-26 15:04 32.83983 -110.92930 37863 ft 379 kts 283°
2026-04-26 15:04 32.85924 -110.98754 37852 ft 379 kts 283°
2026-04-26 15:05 32.87860 -111.04576 37852 ft 378 kts 283°
2026-04-26 15:05 32.89790 -111.10392 37860 ft 377 kts 283°
2026-04-26 15:06 32.91712 -111.16201 37827 ft 376 kts 283°
2026-04-26 15:06 32.93621 -111.21959 37830 ft 376 kts 283°
2026-04-26 15:07 32.96491 -111.30652 37828 ft 376 kts 283°
2026-04-26 15:07 32.98398 -111.36442 37838 ft 376 kts 283°
2026-04-26 15:08 33.00309 -111.42254 37871 ft 376 kts 283°
2026-04-26 15:08 33.02214 -111.48063 37881 ft 376 kts 283°
2026-04-26 15:09 33.04113 -111.53865 37899 ft 376 kts 282°
2026-04-26 15:09 33.06016 -111.59683 37909 ft 376 kts 282°
2026-04-26 15:10 33.07275 -111.63528 37925 ft 376 kts 282°
2026-04-26 15:10 33.09801 -111.71269 37925 ft 377 kts 282°
2026-04-26 15:11 33.11699 -111.77095 37907 ft 377 kts 282°
2026-04-26 15:11 33.13591 -111.82935 37923 ft 377 kts 282°
2026-04-26 15:12 33.15482 -111.88773 37921 ft 377 kts 282°
2026-04-26 15:12 33.17374 -111.94610 37917 ft 377 kts 282°
2026-04-26 15:13 33.18944 -111.99472 37913 ft 378 kts 282°
2026-04-26 15:13 33.20830 -112.05338 37904 ft 379 kts 282°
2026-04-26 15:14 33.22716 -112.11218 37891 ft 379 kts 282°
2026-04-26 15:14 33.24607 -112.17097 37888 ft 379 kts 282°
2026-04-26 15:15 33.26496 -112.22985 37899 ft 379 kts 282°
2026-04-26 15:15 33.28381 -112.28873 37900 ft 379 kts 282°
2026-04-26 15:16 33.30262 -112.34776 37901 ft 381 kts 282°
2026-04-26 15:16 33.32149 -112.40703 37904 ft 382 kts 282°
2026-04-26 15:17 33.33716 -112.45636 37903 ft 383 kts 282°
2026-04-26 15:17 33.35927 -112.52595 37896 ft 384 kts 282°
2026-04-26 15:18 33.37722 -112.58245 37917 ft 385 kts 282°
2026-04-26 15:18 33.39529 -112.63943 37920 ft 385 kts 282°
2026-04-26 15:19 33.41422 -112.69956 37917 ft 386 kts 282°
2026-04-26 15:19 33.43315 -112.75988 37916 ft 388 kts 282°
2026-04-26 15:20 33.45211 -112.82042 37910 ft 389 kts 282°
2026-04-26 15:20 33.47256 -112.88081 37902 ft 393 kts 284°
2026-04-26 15:21 33.49475 -112.94093 37898 ft 395 kts 284°
2026-04-26 15:21 33.51683 -113.00124 37890 ft 395 kts 284°
2026-04-26 15:22 33.53847 -113.06180 37883 ft 396 kts 284°
2026-04-26 15:22 33.56002 -113.12259 37881 ft 396 kts 284°
2026-04-26 15:23 33.58166 -113.18342 37890 ft 397 kts 284°
2026-04-26 15:23 33.60338 -113.24432 37912 ft 398 kts 284°
2026-04-26 15:24 33.62509 -113.30539 37935 ft 398 kts 284°
2026-04-26 15:24 33.64662 -113.36621 37959 ft 398 kts 284°
2026-04-26 15:25 33.66456 -113.41716 37976 ft 399 kts 284°
2026-04-26 15:25 33.68978 -113.48884 37989 ft 399 kts 284°
2026-04-26 15:26 33.71135 -113.55029 37995 ft 399 kts 284°
2026-04-26 15:26 33.73289 -113.61175 37978 ft 399 kts 284°
2026-04-26 15:27 33.75454 -113.67330 37973 ft 400 kts 284°
2026-04-26 15:27 33.77615 -113.73497 37955 ft 401 kts 284°
2026-04-26 15:28 33.79768 -113.79673 37920 ft 400 kts 284°
2026-04-26 15:28 33.81895 -113.85855 37895 ft 400 kts 284°
2026-04-26 15:29 33.83989 -113.92052 37872 ft 400 kts 284°
2026-04-26 15:30 33.88171 -114.04432 37865 ft 401 kts 284°
2026-04-26 15:30 33.90256 -114.10662 37868 ft 399 kts 281°
2026-04-26 15:31 33.92036 -114.20313 37863 ft 393 kts 275°
2026-04-26 15:32 33.93500 -114.28909 37864 ft 394 kts 275°
2026-04-26 15:32 33.94774 -114.36471 37858 ft 394 kts 275°
2026-04-26 15:33 33.95863 -114.42930 37862 ft 394 kts 275°
2026-04-26 15:33 33.96953 -114.49398 37862 ft 394 kts 275°
2026-04-26 15:34 33.98032 -114.55869 37866 ft 394 kts 275°
2026-04-26 15:34 33.99107 -114.62351 37868 ft 395 kts 275°
2026-04-26 15:35 34.00185 -114.68839 37875 ft 395 kts 275°
2026-04-26 15:35 34.01254 -114.75283 37877 ft 394 kts 275°
2026-04-26 15:36 34.02322 -114.81764 37874 ft 394 kts 275°
2026-04-26 15:36 34.03387 -114.88217 37847 ft 384 kts 275°
2026-04-26 15:37 34.04420 -114.94454 37855 ft 376 kts 275°
2026-04-26 15:37 34.05417 -115.00646 37852 ft 376 kts 275°
2026-04-26 15:38 34.06422 -115.06826 37869 ft 376 kts 275°
2026-04-26 15:38 34.07433 -115.13014 37869 ft 376 kts 275°
2026-04-26 15:39 34.08442 -115.19215 37870 ft 377 kts 275°
2026-04-26 15:39 34.09276 -115.24372 37874 ft 377 kts 275°
2026-04-26 15:40 34.10447 -115.31648 37875 ft 378 kts 275°
2026-04-26 15:40 34.11449 -115.37878 37878 ft 378 kts 275°
2026-04-26 15:41 34.12446 -115.44110 37880 ft 379 kts 275°
2026-04-26 15:41 34.13433 -115.50330 37893 ft 380 kts 275°
2026-04-26 15:42 34.14423 -115.56594 37896 ft 380 kts 275°
2026-04-26 15:42 34.15418 -115.62861 37899 ft 380 kts 275°
2026-04-26 15:43 34.16229 -115.69134 37896 ft 374 kts 267°
2026-04-26 15:44 34.15466 -115.78436 37897 ft 371 kts 261°
2026-04-26 15:44 34.14569 -115.87717 37914 ft 371 kts 261°
2026-04-26 15:45 34.13673 -115.96998 37899 ft 372 kts 261°
2026-04-26 15:46 34.13060 -116.03206 37382 ft 373 kts 261°
2026-04-26 15:46 34.12754 -116.06315 37123 ft 373 kts 261°
2026-04-26 15:46 34.12450 -116.09425 36867 ft 373 kts 261°
2026-04-26 15:46 34.12251 -116.11478 36702 ft 373 kts 261°
2026-04-26 15:47 34.11842 -116.15639 36362 ft 373 kts 261°
2026-04-26 15:47 34.11218 -116.21869 35091 ft 376 kts 261°
2026-04-26 15:47 34.10904 -116.25012 34156 ft 379 kts 261°
2026-04-26 15:48 34.10589 -116.28178 33105 ft 381 kts 261°
2026-04-26 15:48 34.10269 -116.31360 32033 ft 383 kts 261°
2026-04-26 15:48 34.09942 -116.34500 31172 ft 383 kts 261°
2026-04-26 15:48 34.09599 -116.37711 30658 ft 387 kts 261°
2026-04-26 15:49 34.09250 -116.40944 30129 ft 391 kts 261°
2026-04-26 15:49 34.08897 -116.44211 29562 ft 394 kts 261°
2026-04-26 15:49 34.08544 -116.47489 29040 ft 394 kts 261°
2026-04-26 15:49 34.08190 -116.50762 28526 ft 392 kts 261°
2026-04-26 15:50 34.07835 -116.54006 28010 ft 387 kts 261°
2026-04-26 15:50 34.07490 -116.57167 27646 ft 372 kts 261°
2026-04-26 15:50 34.07165 -116.60229 27384 ft 365 kts 261°
2026-04-26 15:50 34.06871 -116.63250 27124 ft 362 kts 262°
2026-04-26 15:51 34.06596 -116.66264 26876 ft 361 kts 262°
2026-04-26 15:51 34.06329 -116.69269 26541 ft 360 kts 263°
2026-04-26 15:51 34.06062 -116.72269 26144 ft 359 kts 263°
2026-04-26 15:51 34.05792 -116.75250 25743 ft 357 kts 263°
2026-04-26 15:52 34.05518 -116.78221 25354 ft 356 kts 263°
2026-04-26 15:52 34.05242 -116.81180 24952 ft 355 kts 263°
2026-04-26 15:52 34.04962 -116.84130 24571 ft 354 kts 263°
2026-04-26 15:52 34.04777 -116.86077 24316 ft 353 kts 263°
2026-04-26 15:53 34.04394 -116.90001 23784 ft 351 kts 262°
2026-04-26 15:53 34.04053 -116.92908 23258 ft 349 kts 261°
2026-04-26 15:53 34.03674 -116.95791 22766 ft 347 kts 261°
2026-04-26 15:53 34.03281 -116.98656 22305 ft 346 kts 261°
2026-04-26 15:54 34.02893 -117.01507 21843 ft 344 kts 261°
2026-04-26 15:54 34.02515 -117.04346 21378 ft 342 kts 261°
2026-04-26 15:54 34.02163 -117.07168 20918 ft 340 kts 262°
2026-04-26 15:54 34.01828 -117.09982 20457 ft 338 kts 262°
2026-04-26 15:55 34.01502 -117.12783 19997 ft 337 kts 262°
2026-04-26 15:55 34.01178 -117.15574 19543 ft 335 kts 262°
2026-04-26 15:55 34.00854 -117.18348 19088 ft 333 kts 262°
2026-04-26 15:55 34.00532 -117.21070 18636 ft 332 kts 262°
2026-04-26 15:56 34.00202 -117.23826 18169 ft 331 kts 262°
2026-04-26 15:56 33.99872 -117.26561 17689 ft 329 kts 262°
2026-04-26 15:56 33.99546 -117.29270 17326 ft 322 kts 262°
2026-04-26 15:56 33.99229 -117.31921 16836 ft 318 kts 263°
2026-04-26 15:57 33.98922 -117.34538 16376 ft 314 kts 263°
2026-04-26 15:57 33.98619 -117.37134 15949 ft 311 kts 263°
2026-04-26 15:57 33.98319 -117.39701 15525 ft 310 kts 263°
2026-04-26 15:57 33.98118 -117.41399 15241 ft 308 kts 263°
2026-04-26 15:58 33.97714 -117.44808 14681 ft 306 kts 263°
2026-04-26 15:58 33.97414 -117.47338 14263 ft 304 kts 263°
2026-04-26 15:58 33.97246 -117.49864 13844 ft 302 kts 271°
2026-04-26 15:58 33.97290 -117.52389 13339 ft 301 kts 271°
2026-04-26 15:59 33.97331 -117.54898 12887 ft 298 kts 271°
2026-04-26 15:59 33.97368 -117.57394 12439 ft 296 kts 271°
2026-04-26 15:59 33.97405 -117.59865 11994 ft 294 kts 271°
2026-04-26 15:59 33.97444 -117.62319 11556 ft 292 kts 271°
2026-04-26 16:00 33.97481 -117.64757 11113 ft 290 kts 271°
2026-04-26 16:00 33.97517 -117.67174 10679 ft 288 kts 271°
2026-04-26 16:00 33.97553 -117.69580 10264 ft 286 kts 271°
2026-04-26 16:00 33.97585 -117.71882 10111 ft 272 kts 271°
2026-04-26 16:01 33.97614 -117.74126 10007 ft 264 kts 271°
2026-04-26 16:01 33.97644 -117.76333 9915 ft 265 kts 272°
2026-04-26 16:01 33.97674 -117.78565 9349 ft 267 kts 271°
2026-04-26 16:01 33.97706 -117.80789 8853 ft 265 kts 271°
2026-04-26 16:02 33.97738 -117.82975 8317 ft 257 kts 271°
2026-04-26 16:02 33.97757 -117.84425 7982 ft 256 kts 271°
2026-04-26 16:02 33.97785 -117.86573 7502 ft 256 kts 271°
2026-04-26 16:02 33.97801 -117.87983 7198 ft 255 kts 271°
2026-04-26 16:03 33.97833 -117.90833 6569 ft 254 kts 271°
2026-04-26 16:03 33.97859 -117.92950 6075 ft 252 kts 271°
2026-04-26 16:03 33.97886 -117.95071 5590 ft 253 kts 271°
2026-04-26 16:03 33.97912 -117.97183 5306 ft 246 kts 271°
2026-04-26 16:04 33.97935 -117.99163 5234 ft 228 kts 271°
2026-04-26 16:04 33.97955 -118.00999 5148 ft 216 kts 270°
2026-04-26 16:04 33.97975 -118.02761 5053 ft 202 kts 271°
2026-04-26 16:04 33.97994 -118.04382 4974 ft 185 kts 271°
2026-04-26 16:05 33.98010 -118.05838 4911 ft 178 kts 271°
2026-04-26 16:05 33.98027 -118.07325 4839 ft 176 kts 271°
2026-04-26 16:05 33.98044 -118.08802 4753 ft 176 kts 271°
2026-04-26 16:05 33.98061 -118.10283 4662 ft 177 kts 271°
2026-04-26 16:06 33.98078 -118.11765 4577 ft 177 kts 271°
2026-04-26 16:06 33.98090 -118.13248 4374 ft 177 kts 268°
2026-04-26 16:06 33.97924 -118.14713 4194 ft 177 kts 259°
2026-04-26 16:06 33.97690 -118.16173 4071 ft 177 kts 261°
2026-04-26 16:07 33.97508 -118.17634 3888 ft 177 kts 263°
2026-04-26 16:07 33.97349 -118.19102 3652 ft 176 kts 263°
2026-04-26 16:07 33.97200 -118.20554 3424 ft 174 kts 264°
2026-04-26 16:07 33.97052 -118.22010 3194 ft 176 kts 263°
2026-04-26 16:08 33.96905 -118.23470 2950 ft 175 kts 263°
2026-04-26 16:08 33.96758 -118.24924 2719 ft 175 kts 263°
2026-04-26 16:08 33.96617 -118.26321 2494 ft 162 kts 263°
2026-04-26 16:08 33.96492 -118.27561 2284 ft 134 kts 263°
2026-04-26 16:09 33.96385 -118.28618 2109 ft 121 kts 263°
2026-04-26 16:09 33.96285 -118.29600 1951 ft 116 kts 264°
2026-04-26 16:09 33.96186 -118.30560 1793 ft 117 kts 264°
2026-04-26 16:09 33.96082 -118.31531 1663 ft 114 kts 262°
2026-04-26 16:10 33.95999 -118.32478 1543 ft 115 kts 263°
2026-04-26 16:10 33.95901 -118.33430 1341 ft 113 kts 263°
2026-04-26 16:10 33.95799 -118.34373 1197 ft 115 kts 264°
2026-04-26 16:10 33.95697 -118.35329 985 ft 114 kts 263°
2026-04-26 16:11 33.95599 -118.36270 809 ft 114 kts 266°
2026-04-26 16:11 33.95513 -118.37214 611 ft 114 kts 264°
2026-04-26 16:11 33.95417 -118.38158 486 ft 113 kts 264°
2026-04-26 16:11 33.95320 -118.39096 303 ft 112 kts 264°
2026-04-26 16:12 33.95229 -118.40028 161 ft 112 kts 264°
2026-04-26 16:12 33.95136 -118.40927 107 ft 98 kts 263°
2026-04-26 16:12 33.95037 -118.41907 108 ft 41 kts 263°
2026-04-26 16:13 33.94947 -118.42183 106 ft 30 kts 227°
2026-04-26 16:13 33.94873 -118.42263 105 ft 0 kts 207°
2026-04-26 16:14 33.94830 -118.42280 107 ft 8 kts 191°
2026-04-26 16:14 33.94770 -118.42282 106 ft 10 kts 178°
2026-04-26 16:14 33.94717 -118.42275 102 ft 0 kts 172°
2026-04-26 16:15 33.94690 -118.42283 100 ft 6 kts 226°
2026-04-26 16:16 33.94665 -118.42400 99 ft 6 kts 264°
2026-04-26 16:16 33.94660 -118.42468 99 ft 10 kts 260°
2026-04-26 16:16 33.94648 -118.42572 100 ft 15 kts 264°
2026-04-26 16:16 33.94641 -118.42659 100 ft 6 kts 262°
2026-04-26 16:17 33.94634 -118.42723 100 ft 10 kts 263°
2026-04-26 16:17 33.94623 -118.42828 100 ft 15 kts 263°
2026-04-26 16:17 33.94609 -118.42968 99 ft 15 kts 265°
2026-04-26 16:17 33.94601 -118.43075 100 ft 14 kts 264°
2026-04-26 16:18 33.94600 -118.43089 99 ft 0 kts 265°
2026-04-26 16:18 33.94596 -118.43139 100 ft 8 kts 264°
2026-04-26 16:19 33.94562 -118.43351 98 ft 17 kts 221°
2026-04-26 16:19 33.94536 -118.43364 97 ft 2 kts 191°
2026-04-26 16:19 33.94482 -118.43362 97 ft 7 kts 172°
2026-04-26 16:20 33.94415 -118.43347 95 ft 6 kts 149°
2026-04-26 16:20 33.94409 -118.43266 95 ft 2 kts 83°
2026-04-26 16:20 33.94411 -118.43248 95 ft 1 kts 83°
2026-04-26 16:21 33.94412 -118.43243 96 ft 0 kts 83°